AC2EV Weather Reports


time (UTC)temp
F
wind
direction
speed
knots
gust
knots
rain 1hr
in
rain 24hr
in
rain mn
in
humidity
%
barometer
mb
20260509150229 63 130 0.0 0.9 0.00 0.00 0.00 64 1006.0
20260509145230 62 130 0.0 0.9 0.00 0.00 0.00 68 1006.0
20260509144229 60 130 0.0 0.9 0.00 0.00 0.00 69 1006.2
20260509143730 60 134 0.0 0.9 0.00 0.00 0.00 68 1006.2
20260509143230 60 132 0.0 0.9 0.00 0.00 0.00 68 1006.3
20260509142919 60 131 0.0 0.9 0.00 0.00 0.00 69 1006.3
20260509142229 60 0 0.0 0.0 0.00 0.00 0.00 70 1006.3
20260509141730 59 0 0.0 3.5 0.00 0.00 0.00 71 1006.4
20260509141352 58 132 0.0 3.5 0.00 0.00 0.00 72 1006.4
20260509140920 58 131 0.0 0.0 0.00 0.00 0.00 72 1006.4
20260509140229 58 0 0.0 2.6 0.00 0.00 0.00 72 1006.4
20260509135729 58 129 0.0 2.6 0.00 0.00 0.00 73 1006.4
20260509135230 57 129 0.0 2.6 0.00 0.00 0.00 73 1006.5
20260509134729 57 127 0.0 2.6 0.00 0.00 0.00 74 1006.5
20260509134231 57 127 0.0 2.6 0.00 0.00 0.00 73 1006.6
20260509133729 57 123 0.0 2.6 0.00 0.00 0.00 74 1006.6
20260509133231 56 121 0.0 3.5 0.00 0.00 0.00 74 1006.6
20260509132729 56 121 0.0 3.5 0.00 0.00 0.00 75 1006.7
20260509132230 56 115 0.0 2.6 0.00 0.00 0.00 76 1006.8
20260509131920 55 115 0.0 2.6 0.00 0.00 0.00 76 1006.9
20260509131231 55 110 0.0 0.9 0.00 0.00 0.00 76 1006.9
20260509130729 55 109 0.0 0.9 0.00 0.00 0.00 76 1006.9
20260509130231 54 109 0.0 0.9 0.00 0.00 0.00 76 1007.0
20260509125729 54 108 0.0 0.9 0.00 0.00 0.00 77 1007.0
20260509125229 54 108 0.0 0.0 0.00 0.00 0.00 77 1007.0
20260509124729 53 108 0.0 3.5 0.00 0.01 0.00 77 1007.1
20260509124229 53 107 0.0 3.5 0.00 0.01 0.00 77 1007.2
20260509123730 53 106 0.0 0.0 0.00 0.02 0.00 77 1007.3
20260509123232 52 105 0.0 0.0 0.00 0.02 0.00 77 1007.2
20260509122729 52 105 0.0 0.0 0.00 0.02 0.00 77 1007.2
20260509122229 52 104 0.0 0.0 0.00 0.02 0.00 76 1007.2
20260509121729 51 104 0.0 0.0 0.00 0.02 0.00 76 1007.2
20260509121230 51 104 0.0 0.0 0.00 0.02 0.00 76 1007.3
20260509120734 50 105 0.0 0.0 0.00 0.02 0.00 76 1007.1
20260509120229 49 0 0.0 0.0 0.00 0.02 0.00 76 1007.2
20260509115724 49 105 0.0 0.0 0.00 0.02 0.00 76 1007.3
20260509115217 48 105 0.0 0.0 0.00 0.02 0.00 75 1007.2
20260509114715 48 107 0.0 0.0 0.00 0.02 0.00 75 1007.2
20260509114216 47 0 0.0 0.0 0.00 0.02 0.00 75 1007.3
20260509113211 47 104 0.0 0.0 0.00 0.02 0.00 74 1007.4
20260509112212 47 104 0.0 0.0 0.00 0.02 0.00 74 1007.5
20260509111209 46 104 0.0 0.9 0.00 0.02 0.00 74 1007.4
20260509110912 46 104 0.0 0.9 0.00 0.02 0.00 74 1007.5
20260509110214 46 103 0.0 1.7 0.00 0.02 0.00 74 1007.4
20260509105208 45 103 0.0 0.9 0.00 0.02 0.00 74 1007.2
20260509104203 44 103 0.0 0.9 0.00 0.02 0.00 74 1007.3
20260509103916 44 103 0.0 0.0 0.00 0.02 0.00 74 1007.2
20260509103202 44 103 0.0 0.0 0.00 0.02 0.00 74 1007.2
20260509102202 44 103 0.0 0.0 0.00 0.02 0.00 73 1007.2
20260509101158 44 103 0.0 0.0 0.00 0.02 0.00 73 1007.2
20260509100653 44 103 0.0 0.0 0.00 0.02 0.00 72 1007.1
20260509100147 44 103 0.0 0.0 0.00 0.02 0.00 72 1007.1
20260509095641 43 103 0.0 0.0 0.00 0.02 0.00 72 1007.1
20260509095134 43 103 0.0 0.0 0.00 0.02 0.00 72 1007.2
20260509094635 43 103 0.0 0.0 0.00 0.02 0.00 72 1007.2
20260509094133 43 103 0.0 0.0 0.00 0.02 0.00 72 1007.2
20260509093632 43 103 0.0 0.0 0.00 0.02 0.00 72 1007.3
20260509093131 43 103 0.0 0.0 0.00 0.02 0.00 72 1007.1
20260509092631 43 103 0.0 0.0 0.00 0.02 0.00 72 1007.2
20260509092131 43 103 0.0 0.0 0.00 0.02 0.00 72 1007.2
20260509091630 43 103 0.0 0.0 0.00 0.02 0.00 72 1007.2
20260509091131 43 103 0.0 0.0 0.00 0.02 0.00 72 1007.2
20260509090629 43 103 0.0 0.0 0.00 0.02 0.00 72 1007.3
20260509090131 43 103 0.0 0.0 0.00 0.02 0.00 72 1007.3
20260509085629 43 103 0.0 0.0 0.00 0.02 0.00 72 1007.4
20260509085128 43 103 0.0 0.0 0.00 0.02 0.00 72 1007.4
20260509084629 43 103 0.0 0.0 0.00 0.02 0.00 72 1007.4
20260509084129 43 103 0.0 0.9 0.00 0.02 0.00 73 1007.5
20260509083630 42 103 0.0 0.9 0.00 0.02 0.00 73 1007.5
20260509083129 42 103 0.0 0.0 0.00 0.02 0.00 73 1007.5
20260509082629 42 103 0.0 0.0 0.00 0.02 0.00 73 1007.5
20260509082129 42 103 0.0 0.0 0.00 0.02 0.00 73 1007.6
20260509081629 42 103 0.0 0.0 0.00 0.02 0.00 73 1007.6
20260509081129 42 103 0.0 0.0 0.00 0.02 0.00 73 1007.6
20260509080629 42 103 0.0 0.0 0.00 0.02 0.00 73 1007.7
20260509080129 42 103 0.0 0.0 0.00 0.02 0.00 73 1007.7
20260509075629 42 103 0.0 0.0 0.00 0.02 0.00 73 1007.8
20260509075129 42 103 0.0 0.0 0.00 0.02 0.00 72 1007.8
20260509074629 42 103 0.0 0.0 0.00 0.02 0.00 72 1007.9
20260509074129 42 103 0.0 0.0 0.00 0.02 0.00 72 1007.8
20260509073629 43 103 0.0 0.0 0.00 0.02 0.00 72 1007.8
20260509073128 42 103 0.0 0.0 0.00 0.02 0.00 72 1007.9
20260509072629 42 103 0.0 0.0 0.00 0.02 0.00 72 1008.0
20260509072129 43 103 0.0 0.0 0.00 0.02 0.00 72 1008.1
20260509071629 43 103 0.0 0.0 0.00 0.02 0.00 72 1008.1
20260509071130 43 103 0.0 0.0 0.00 0.02 0.00 72 1008.1
20260509070629 43 103 0.0 0.0 0.00 0.02 0.00 72 1008.2
20260509070129 43 103 0.0 0.0 0.00 0.02 0.00 71 1008.3
20260509065629 43 103 0.0 0.0 0.00 0.02 0.00 71 1008.4
20260509065129 43 103 0.0 0.0 0.00 0.02 0.00 71 1008.3
20260509064629 43 103 0.0 0.0 0.00 0.02 0.00 71 1008.4
20260509064129 43 103 0.0 0.0 0.00 0.02 0.00 71 1008.4
20260509063629 43 103 0.0 0.0 0.00 0.02 0.00 71 1008.5
20260509063129 43 103 0.0 0.0 0.00 0.02 0.00 71 1008.5
20260509062630 43 103 0.0 0.0 0.00 0.02 0.00 71 1008.6
20260509062129 43 103 0.0 0.0 0.00 0.02 0.00 72 1008.6
20260509061629 43 103 0.0 0.0 0.00 0.02 0.00 72 1008.7
20260509061129 43 103 0.0 0.0 0.00 0.02 0.00 72 1008.7
20260509060629 43 103 0.0 0.0 0.00 0.02 0.00 72 1008.7
20260509060129 43 103 0.0 0.0 0.00 0.02 0.00 72 1008.9
20260509055626 43 103 0.0 0.0 0.00 0.02 0.00 73 1008.9
20260509055127 44 103 0.0 0.0 0.00 0.02 0.00 72 1008.9
20260509054627 44 103 0.0 0.0 0.00 0.02 0.00 72 1009.0
20260509054127 44 103 0.0 0.0 0.00 0.02 0.00 72 1009.0
20260509053626 44 103 0.0 0.0 0.00 0.02 0.00 72 1009.0
20260509053125 44 103 0.0 0.0 0.00 0.02 0.00 73 1009.1
20260509052625 44 103 0.0 0.0 0.00 0.02 0.00 73 1009.3
20260509052125 44 103 0.0 0.0 0.00 0.02 0.00 73 1009.3
20260509051626 44 103 0.0 0.0 0.00 0.02 0.00 73 1009.3
20260509051125 44 103 0.0 0.0 0.00 0.02 0.00 73 1009.3
20260509050622 44 103 0.0 0.0 0.00 0.02 0.00 74 1009.4
20260509050122 44 103 0.0 0.0 0.00 0.02 0.00 75 1009.4
20260509045620 44 103 0.0 0.0 0.00 0.02 0.00 76 1009.4
20260509045118 43 103 0.0 0.0 0.00 0.02 0.00 77 1009.5
20260509044702 43 103 0.0 0.0 0.00 0.02 0.00 78 1009.4
20260509044218 43 103 0.0 0.0 0.00 0.02 0.00 79 1009.4
20260509043728 43 103 0.0 0.0 0.00 0.02 0.00 80 1009.5
20260509015559 45 103 0.0 0.0 0.00 0.07 0.03 70 1010.0
20260509015057 45 103 0.0 0.0 0.00 0.07 0.03 69 1010.1
20260509014553 45 103 0.0 0.0 0.00 0.07 0.03 68 1010.1
20260509014052 45 103 0.0 0.0 0.00 0.07 0.03 69 1010.1
20260509013553 46 103 0.0 0.0 0.00 0.07 0.03 68 1010.0
20260509013053 46 103 0.0 0.0 0.00 0.08 0.03 68 1010.1
20260509012553 46 103 0.0 0.0 0.00 0.08 0.03 67 1010.1
20260509012052 47 103 0.0 0.0 0.00 0.08 0.03 66 1010.1
20260509011553 47 103 0.0 0.0 0.00 0.08 0.03 66 1010.1
20260509011052 47 103 0.0 0.0 0.00 0.08 0.03 64 1010.0
20260509010553 48 103 0.0 0.0 0.00 0.08 0.03 61 1009.9
20260509010049 48 103 0.0 0.0 0.00 0.08 0.03 58 1009.8
20260509005549 48 103 0.0 0.0 0.00 0.08 0.03 58 1009.7
20260509005049 48 103 0.0 0.0 0.00 0.08 0.03 58 1009.5
20260509004548 49 103 0.0 0.0 0.00 0.08 0.03 57 1009.5
20260509004048 49 103 0.0 0.0 0.00 0.08 0.03 57 1009.5
20260509003548 49 103 0.0 0.0 0.00 0.08 0.03 57 1009.3
20260509003048 49 104 0.0 0.0 0.00 0.08 0.03 57 1009.4
20260509002548 50 104 0.0 0.0 0.00 0.08 0.03 56 1009.4
20260509002050 50 103 0.0 0.0 0.00 0.08 0.03 55 1009.4
20260509001542 50 103 0.0 0.0 0.00 0.08 0.03 55 1009.4
20260509001042 51 103 0.0 0.0 0.00 0.08 0.03 56 1009.3
20260509000541 51 105 0.0 0.0 0.00 0.08 0.03 54 1009.4
20260509000039 51 105 0.0 0.0 0.00 0.08 0.03 54 1009.3
20260508235537 51 107 0.0 0.0 0.00 0.08 0.03 54 1009.3
20260508235035 51 107 0.0 0.0 0.00 0.08 0.03 53 1009.3
20260508234533 51 104 0.0 0.0 0.00 0.08 0.03 53 1009.3
20260508234031 51 104 0.0 0.0 0.00 0.08 0.03 53 1009.3
20260508233530 51 103 0.0 0.0 0.00 0.08 0.03 54 1009.2
20260508233029 51 104 0.0 0.0 0.00 0.08 0.03 53 1009.2
20260508232530 51 103 0.0 0.0 0.00 0.08 0.03 53 1009.2
20260508232029 52 103 0.0 0.0 0.00 0.08 0.03 53 1009.1
20260508231529 52 103 0.0 0.0 0.00 0.08 0.03 54 1009.1
20260508231030 52 103 0.0 0.0 0.00 0.08 0.03 55 1009.2
20260508230529 52 103 0.0 0.0 0.00 0.08 0.03 53 1009.2
20260508230030 52 103 0.0 0.0 0.00 0.08 0.03 53 1009.2
20260508225529 52 103 0.0 0.0 0.00 0.08 0.03 52 1009.1
20260508225030 52 103 0.0 0.0 0.00 0.08 0.03 51 1009.2
20260508224529 52 103 0.0 0.0 0.00 0.08 0.03 53 1009.2
20260508224026 52 103 0.0 0.0 0.00 0.08 0.03 53 1009.2
20260508223526 52 103 0.0 0.0 0.00 0.08 0.03 53 1009.2
20260508223025 52 103 0.0 0.0 0.00 0.08 0.03 53 1009.2
20260508222523 52 103 0.0 0.0 0.00 0.08 0.03 53 1009.2
20260508222021 53 103 0.0 0.0 0.00 0.08 0.03 53 1009.3
20260508221518 53 103 0.0 0.0 0.00 0.08 0.03 52 1009.3
20260508221019 54 103 0.0 0.0 0.00 0.08 0.03 55 1009.2
20260508220519 54 103 0.0 0.0 0.00 0.08 0.03 52 1009.2
20260508220017 54 103 0.0 0.0 0.00 0.08 0.03 51 1009.3
20260508215514 54 103 0.0 0.0 0.00 0.08 0.03 52 1009.4
20260508215013 54 103 0.0 0.0 0.00 0.08 0.03 55 1009.3
20260508214510 54 103 0.0 0.0 0.00 0.08 0.03 56 1009.4
20260508214008 54 103 0.0 0.0 0.00 0.08 0.03 56 1009.4
20260508213508 55 103 0.0 0.0 0.00 0.08 0.03 55 1009.4
20260508213006 55 103 0.0 0.0 0.00 0.08 0.03 57 1009.4
20260508212504 55 103 0.0 0.0 0.00 0.08 0.03 57 1009.4
20260508212004 55 103 0.0 0.0 0.00 0.08 0.03 57 1009.4
20260508211503 55 103 0.0 0.0 0.00 0.08 0.03 55 1009.5
20260508211003 55 103 0.0 0.0 0.00 0.08 0.03 56 1009.5
20260508210503 55 103 0.0 0.0 0.00 0.08 0.03 57 1009.5
20260508210005 55 103 0.0 0.0 0.00 0.08 0.03 57 1009.5
20260508205503 54 103 0.0 0.0 0.00 0.08 0.03 57 1009.6
20260508205005 55 103 0.0 0.0 0.00 0.08 0.03 58 1009.6
20260508204502 55 103 0.0 0.0 0.00 0.08 0.03 57 1009.7
20260508204005 55 103 0.0 0.0 0.00 0.08 0.03 57 1009.7
20260508203502 55 103 0.0 0.9 0.00 0.08 0.03 57 1009.7
20260508203004 55 103 0.0 0.9 0.00 0.08 0.03 59 1009.8
20260508202503 55 103 0.0 0.0 0.00 0.08 0.03 58 1009.8
20260508202002 55 103 0.0 0.0 0.00 0.08 0.03 57 1009.9
20260508201503 55 103 0.0 0.0 0.00 0.08 0.03 58 1010.0
20260508201003 54 103 0.0 0.0 0.00 0.08 0.03 58 1010.1
20260508200502 54 103 0.0 0.0 0.00 0.08 0.03 60 1010.2
20260508200004 54 103 0.0 0.0 0.00 0.08 0.03 60 1010.3
20260508195503 54 103 0.0 0.0 0.00 0.08 0.03 60 1010.2
20260508195002 53 103 0.0 0.0 0.00 0.08 0.03 62 1010.2
20260508194502 53 103 0.0 0.0 0.00 0.08 0.03 61 1010.3
20260508194002 53 103 0.0 0.0 0.00 0.08 0.03 60 1010.4
20260508193503 53 103 0.0 0.0 0.00 0.08 0.03 61 1010.4
20260508193002 53 103 0.0 0.0 0.00 0.08 0.03 62 1010.4
20260508192504 53 103 0.0 0.9 0.00 0.08 0.03 63 1010.5
20260508192002 52 103 0.0 0.9 0.00 0.08 0.03 61 1010.6
20260508191502 53 103 0.0 0.0 0.00 0.08 0.03 62 1010.7
20260508191002 52 103 0.0 0.9 0.00 0.08 0.03 64 1010.7
20260508190503 51 103 0.0 0.9 0.00 0.08 0.03 63 1010.7
20260508190002 51 107 0.0 0.9 0.00 0.08 0.03 64 1010.7
20260508185503 51 107 0.0 2.6 0.00 0.08 0.03 65 1010.6
20260508185002 51 107 0.0 2.6 0.00 0.08 0.03 65 1010.6
20260508184502 52 112 0.0 1.7 0.00 0.08 0.03 62 1010.6
20260508183503 54 119 0.0 7.0 0.00 0.08 0.03 57 1010.5
20260508183003 55 208 0.0 0.9 0.00 0.08 0.03 47 1010.6
20260508182502 55 208 0.0 3.5 0.00 0.08 0.03 47 1010.5
20260508182002 55 208 0.0 3.5 0.00 0.08 0.03 48 1010.6
20260508181504 54 205 0.0 0.9 0.00 0.08 0.03 49 1010.6
20260508180959 54 205 0.0 2.6 0.00 0.08 0.03 49 1010.7
20260508180456 54 205 0.0 2.6 0.00 0.08 0.03 51 1010.7
20260508175955 54 204 0.0 0.0 0.00 0.08 0.03 51 1010.7
20260508175453 53 204 0.0 0.9 0.00 0.08 0.03 55 1010.7
20260508174951 53 204 0.0 0.9 0.00 0.08 0.03 53 1010.9
20260508174449 53 204 0.0 0.9 0.00 0.08 0.03 53 1010.9
20260508173949 53 204 0.0 4.3 0.00 0.08 0.03 57 1010.9
20260508173449 53 204 0.0 4.3 0.00 0.08 0.03 59 1011.0
20260508172949 53 201 0.0 0.0 0.00 0.08 0.03 56 1011.1
20260508172449 53 201 0.0 0.0 0.00 0.08 0.03 55 1011.0
20260508171949 52 201 0.0 0.9 0.00 0.08 0.03 57 1011.1
20260508171448 52 201 0.0 0.9 0.00 0.08 0.03 58 1011.1
20260508170443 52 201 0.0 0.9 0.00 0.08 0.03 57 1011.2
20260508165943 52 201 0.0 0.9 0.00 0.08 0.03 55 1011.2
20260508165443 52 201 0.0 0.0 0.00 0.08 0.03 57 1011.2
20260508164943 51 201 0.0 0.9 0.00 0.08 0.03 58 1011.3
20260508164443 51 201 0.0 7.0 0.00 0.08 0.03 58 1011.4
20260508163944 52 200 0.0 7.0 0.00 0.08 0.03 57 1011.5
20260508163443 52 242 0.0 1.7 0.00 0.08 0.03 59 1011.5
20260508162944 50 242 0.0 3.5 0.00 0.08 0.03 57 1011.6
20260508162442 49 244 0.0 3.5 0.00 0.08 0.03 60 1011.7
20260508161942 49 246 0.0 0.9 0.00 0.08 0.03 62 1011.7
20260508161443 50 246 0.0 6.1 0.00 0.08 0.03 66 1011.7
20260508160942 49 246 0.0 6.1 0.00 0.08 0.03 64 1011.9
20260508160443 49 248 0.0 2.6 0.00 0.08 0.03 64 1011.9
20260508155945 49 247 0.0 2.6 0.00 0.08 0.03 62 1011.9
20260508155441 49 248 0.0 2.6 0.00 0.08 0.03 64 1012.0
20260508154938 49 246 0.0 2.6 0.00 0.08 0.03 66 1012.0
20260508154439 49 0 0.0 0.0 0.00 0.08 0.03 68 1012.0
20260508153939 48 248 0.0 0.0 0.00 0.08 0.03 69 1012.0
20260508153438 47 0 0.0 0.0 0.00 0.08 0.03 73 1011.9
20260508152935 47 247 0.0 0.0 0.00 0.08 0.03 74 1012.0
20260508152432 47 0 0.0 0.9 0.00 0.08 0.03 74 1011.9
20260508151930 47 248 0.0 0.9 0.00 0.08 0.03 75 1011.8
20260508151432 47 248 0.0 3.5 0.00 0.08 0.03 78 1011.8
20260508150931 47 248 0.0 3.5 0.00 0.08 0.03 77 1011.9